Change the Weather History Date:

Sunday, September 8, 2013

  Actual Average Record
Temperature  
Mean Temperature 74 °F -  
Max Temperature 88 °F 81 °F 105 °F (1954)
Min Temperature 60 °F 59 °F 43 °F (1984)
Cooling Degree Days 8    
Growing Degree Days 24 (Base 50)    
Moisture  
Dew Point 64 °F    
Average Humidity 77    
Maximum Humidity 100    
Minimum Humidity 48    
Precipitation  
Precipitation 0.00 in - - ()
Sea Level Pressure  
Sea Level Pressure 29.95 in    
Wind  
Wind Speed 1 mph (NNW)    
Max Wind Speed 8 mph    
Max Gust Speed -    
Visibility 8 miles    
Events      
Averages and records for this station are not official NWS values.
T = Trace of Precipitation, MM = Missing Value Source: NWS Daily Summary

Daily Weather History Graph

Daily Weather History Graph

Search for Another Location

Airport or City:

Trip Planner

Search our weather history database for the weather conditions in past years. The results will help you decide how hot, cold, wet, or windy it might be!

Date:

Astronomy

Sep. 08, 2013 Rise Set
Actual Time 6:45 AM EDT 7:28 PM EDT
Civil Twilight 6:19 AM EDT 7:54 PM EDT
Nautical Twilight 5:48 AM EDT 8:25 PM EDT
Astronomical Twilight 5:15 AM EDT 8:57 PM EDT
Moon 9:56 AM EDT (9/8) 9:07 PM EDT (9/8)
Length of Visible Light 13h 35m
Length of Day
12h 42m
Waxing Crescent, 11% of the Moon is Illuminated
Sep 8
Waxing Crescent
Sep 12
First Quarter
Sep 19
Full
Sep 26
Last Quarter
Oct 4
New

Hourly Weather History & Observations

Time (EDT) Temp. Heat Index Dew Point Humidity Pressure Visibility Wind Dir Wind Speed Gust Speed Precip Events Conditions
12:54 AM 63.0 °F - 61.0 °F 93% 29.97 in 7.0 mi Calm Calm - N/A   Clear
1:54 AM 62.1 °F - 61.0 °F 96% 29.97 in 7.0 mi Calm Calm - N/A   Clear
2:54 AM 64.0 °F - 62.1 °F 93% 29.96 in 9.0 mi Calm Calm - N/A   Clear
3:54 AM 62.1 °F - 61.0 °F 96% 29.94 in 5.0 mi Calm Calm - N/A   Clear
4:54 AM 62.1 °F - 61.0 °F 96% 29.95 in 6.0 mi Calm Calm - N/A   Clear
5:54 AM 63.0 °F - 61.0 °F 93% 29.94 in 7.0 mi Calm Calm - N/A   Clear
6:54 AM 62.1 °F - 61.0 °F 96% 29.95 in 4.0 mi Calm Calm - N/A   Clear
7:11 AM 60.8 °F - 60.8 °F 100% 29.95 in 1.8 mi Calm Calm - N/A   Clear
7:22 AM 60.8 °F - 60.8 °F 100% 29.96 in 3.0 mi Calm Calm - N/A   Clear
7:54 AM 64.0 °F - 62.1 °F 93% 29.96 in 4.0 mi Calm Calm - N/A   Clear
8:54 AM 70.0 °F - 64.0 °F 81% 29.95 in 10.0 mi Calm Calm - N/A   Clear
9:54 AM 75.9 °F - 63.0 °F 64% 29.95 in 10.0 mi Calm Calm - N/A   Partly Cloudy
10:54 AM 79.0 °F - 61.0 °F 54% 29.96 in 10.0 mi NE 3.5 mph - N/A   Clear
11:54 AM 81.0 °F 81.9 °F 62.1 °F 52% 29.95 in 10.0 mi Calm Calm - N/A   Clear
12:54 PM 84.0 °F 85.8 °F 64.9 °F 53% 29.94 in 10.0 mi Calm Calm - N/A   Clear
1:54 PM 84.9 °F 86.6 °F 64.9 °F 51% 29.93 in 10.0 mi WNW 8.1 mph - N/A   Scattered Clouds
2:54 PM 86.0 °F 87.3 °F 64.0 °F 48% 29.91 in 10.0 mi North 5.8 mph - N/A   Clear
3:54 PM 87.1 °F 88.9 °F 64.9 °F 48% 29.91 in 10.0 mi Variable 3.5 mph - N/A   Clear
4:54 PM 86.0 °F 87.3 °F 64.0 °F 48% 29.91 in 10.0 mi NW 4.6 mph - N/A   Clear
5:54 PM 84.9 °F 86.1 °F 64.0 °F 49% 29.91 in 10.0 mi WNW 5.8 mph - N/A   Clear
6:54 PM 77.0 °F - 70.0 °F 79% 29.93 in 9.0 mi Calm Calm - N/A   Clear
7:54 PM 73.9 °F - 69.1 °F 85% 29.94 in 10.0 mi Calm Calm - N/A   Mostly Cloudy
8:54 PM 73.0 °F - 69.1 °F 87% 29.97 in 8.0 mi Calm Calm - N/A   Scattered Clouds
9:54 PM 73.0 °F - 69.1 °F 87% 29.99 in 8.0 mi Calm Calm - N/A   Overcast
10:54 PM 75.9 °F - 69.1 °F 79% 30.01 in 9.0 mi NNW 4.6 mph - N/A   Overcast
11:54 PM 73.9 °F - 69.1 °F 85% 30.02 in 10.0 mi Calm Calm - N/A   Overcast